Time,TemperatureF,DewpointF,PressureIn,WindDirection,WindDirectionDegrees,WindSpeedMPH,WindSpeedGustMPH,Humidity,HourlyPrecipIn,Conditions,Clouds,dailyrainin,SoftwareType,DateUTC
2013-01-07 00:02:00,27.0,9.0,29.97,NW,315,4.0,7.0,47,0.00,,,-99.99,,2013-01-07 07:02:00,
2013-01-07 00:11:00,27.0,9.0,29.97,NW,315,4.0,7.0,47,0.00,,,-99.99,,2013-01-07 07:11:00,
2013-01-07 00:22:00,26.0,9.0,29.98,SW,225,1.0,4.0,49,0.00,,,-99.99,,2013-01-07 07:22:00,
2013-01-07 00:32:00,26.0,9.0,29.98,SW,225,0.0,3.0,49,0.00,,,-99.99,,2013-01-07 07:32:00,
2013-01-07 00:42:00,26.0,9.0,29.98,SW,225,0.0,3.0,49,0.00,,,-99.99,,2013-01-07 07:42:00,
2013-01-07 00:52:00,26.0,9.0,29.98,North,360,0.0,2.0,48,0.00,,,-99.99,,2013-01-07 07:52:00,
2013-01-07 01:02:00,26.0,9.0,29.98,East,90,0.0,2.0,48,0.00,,,-99.99,,2013-01-07 08:02:00,
2013-01-07 01:11:00,26.0,9.0,29.98,East,90,0.0,2.0,48,0.00,,,-99.99,,2013-01-07 08:11:00,
2013-01-07 01:22:00,26.0,9.0,29.98,East,90,0.0,2.0,48,0.00,,,-99.99,,2013-01-07 08:22:00,
2013-01-07 01:32:00,26.0,10.0,29.97,SSW,202,6.0,11.0,50,0.00,,,-99.99,,2013-01-07 08:32:00,
2013-01-07 01:43:00,26.0,10.0,29.97,SSW,202,6.0,11.0,50,0.00,,,-99.99,,2013-01-07 08:43:00,
2013-01-07 01:53:00,27.0,10.0,29.97,SE,135,11.0,15.0,49,0.00,,,-99.99,,2013-01-07 08:53:00,
2013-01-07 02:02:00,26.0,10.0,29.96,WNW,292,9.0,15.0,51,0.00,,,-99.99,,2013-01-07 09:02:00,
2013-01-07 02:12:00,26.0,10.0,29.96,WNW,292,9.0,15.0,51,0.00,,,-99.99,,2013-01-07 09:12:00,
2013-01-07 02:22:00,26.0,10.0,29.96,East,90,9.0,16.0,51,0.00,,,-99.99,,2013-01-07 09:22:00,
2013-01-07 02:32:00,26.0,11.0,29.96,East,90,9.0,15.0,52,0.00,,,-99.99,,2013-01-07 09:32:00,
2013-01-07 02:42:00,26.0,11.0,29.96,East,90,9.0,15.0,52,0.00,,,-99.99,,2013-01-07 09:42:00,
2013-01-07 02:52:00,26.0,10.0,29.96,East,90,8.0,14.0,51,0.00,,,-99.99,,2013-01-07 09:52:00,
2013-01-07 03:02:00,26.0,9.0,29.96,SE,135,9.0,14.0,48,0.00,,,-99.99,,2013-01-07 10:02:00,
2013-01-07 03:11:00,25.0,9.0,29.96,SE,135,7.0,12.0,50,0.00,,,-99.99,,2013-01-07 10:11:00,
2013-01-07 03:22:00,25.0,9.0,29.96,SE,135,7.0,12.0,50,0.00,,,-99.99,,2013-01-07 10:22:00,
2013-01-07 03:32:00,24.0,8.0,29.96,SE,135,8.0,12.0,50,0.00,,,-99.99,,2013-01-07 10:32:00,
2013-01-07 03:42:00,24.0,8.0,29.96,SE,135,8.0,12.0,50,0.00,,,-99.99,,2013-01-07 10:42:00,
2013-01-07 03:52:00,24.0,8.0,29.96,SE,135,8.0,12.0,50,0.00,,,-99.99,,2013-01-07 10:52:00,
2013-01-07 04:01:00,24.0,9.0,29.96,SE,135,9.0,14.0,52,0.00,,,-99.99,,2013-01-07 11:01:00,
2013-01-07 04:12:00,24.0,9.0,29.96,SE,135,9.0,14.0,52,0.00,,,-99.99,,2013-01-07 11:12:00,
2013-01-07 04:22:00,24.0,9.0,29.96,SE,135,9.0,14.0,52,0.00,,,-99.99,,2013-01-07 11:22:00,
2013-01-07 04:32:00,24.0,9.0,29.96,SE,135,11.0,17.0,53,0.00,,,-99.99,,2013-01-07 11:32:00,
2013-01-07 04:42:00,24.0,9.0,29.96,SE,135,11.0,17.0,53,0.00,,,-99.99,,2013-01-07 11:42:00,
2013-01-07 04:53:00,24.0,9.0,29.96,NW,315,12.0,17.0,52,0.00,,,-99.99,,2013-01-07 11:53:00,
2013-01-07 05:02:00,23.0,9.0,29.95,East,90,10.0,16.0,55,0.00,,,-99.99,,2013-01-07 12:02:00,
2013-01-07 05:12:00,23.0,9.0,29.95,WNW,292,10.0,17.0,55,0.00,,,-99.99,,2013-01-07 12:12:00,
2013-01-07 05:22:00,23.0,9.0,29.95,WNW,292,10.0,17.0,55,0.00,,,-99.99,,2013-01-07 12:22:00,
2013-01-07 05:30:00,23.0,10.0,29.96,East,90,11.0,18.0,56,0.00,,,-99.99,,2013-01-07 12:30:00,
2013-01-07 05:32:00,23.0,9.0,29.95,WNW,292,10.0,17.0,55,0.00,,,-99.99,,2013-01-07 12:32:00,
2013-01-07 05:42:00,23.0,9.0,29.95,WNW,292,10.0,17.0,55,0.00,,,-99.99,,2013-01-07 12:42:00,
2013-01-07 05:52:00,23.0,10.0,29.96,East,90,11.0,18.0,56,0.00,,,-99.99,,2013-01-07 12:52:00,
2013-01-07 06:02:00,23.0,10.0,29.96,East,90,11.0,18.0,56,0.00,,,-99.99,,2013-01-07 13:02:00,
2013-01-07 06:12:00,23.0,10.0,29.96,East,90,11.0,18.0,56,0.00,,,-99.99,,2013-01-07 13:12:00,
2013-01-07 06:22:00,23.0,10.0,29.96,East,90,11.0,18.0,56,0.00,,,-99.99,,2013-01-07 13:22:00,
2013-01-07 07:03:00,21.0,9.0,29.96,East,90,5.0,8.0,58,0.00,,,-99.99,,2013-01-07 14:03:00,
2013-01-07 07:12:00,21.0,9.0,29.96,East,90,5.0,8.0,58,0.00,,,-99.99,,2013-01-07 14:12:00,
2013-01-07 07:22:00,22.0,10.0,29.97,East,90,5.0,8.0,59,0.00,,,-99.99,,2013-01-07 14:22:00,
2013-01-07 07:32:00,20.0,9.0,29.97,NW,315,4.0,8.0,62,0.00,,,-99.99,,2013-01-07 14:32:00,
2013-01-07 07:42:00,20.0,9.0,29.97,NW,315,4.0,8.0,62,0.00,,,-99.99,,2013-01-07 14:42:00,
2013-01-07 07:53:00,21.0,10.0,29.98,North,360,8.0,10.0,61,0.00,,,-99.99,,2013-01-07 14:53:00,
2013-01-07 08:02:00,21.0,10.0,29.98,North,360,8.0,10.0,61,0.00,,,-99.99,,2013-01-07 15:02:00,
2013-01-07 08:12:00,21.0,10.0,29.98,North,360,8.0,10.0,61,0.00,,,-99.99,,2013-01-07 15:12:00,
2013-01-07 08:22:00,23.0,10.0,29.98,SE,135,7.0,12.0,58,0.00,,,-99.99,,2013-01-07 15:22:00,
2013-01-07 08:33:00,26.0,12.0,29.98,SE,135,4.0,8.0,54,0.00,,,-99.99,,2013-01-07 15:33:00,
2013-01-07 08:52:00,28.0,12.0,29.98,NNE,22,1.0,3.0,51,0.00,,,-99.99,,2013-01-07 15:52:00,
2013-01-07 09:02:00,15.0,6.0,29.99,West,270,4.0,8.0,68,0.00,,,-99.99,,2013-01-07 16:02:00,
2013-01-07 09:12:00,15.0,6.0,29.99,West,270,4.0,8.0,68,0.00,,,-99.99,,2013-01-07 16:12:00,
2013-01-07 09:22:00,15.0,6.0,29.99,West,270,4.0,8.0,68,0.00,,,-99.99,,2013-01-07 16:22:00,
2013-01-07 09:33:00,22.0,11.0,29.99,NW,315,3.0,7.0,61,0.00,,,-99.99,,2013-01-07 16:33:00,
2013-01-07 09:42:00,22.0,11.0,29.99,NW,315,3.0,7.0,61,0.00,,,-99.99,,2013-01-07 16:42:00,
2013-01-07 09:53:00,22.0,11.0,29.99,NW,315,3.0,7.0,61,0.00,,,-99.99,,2013-01-07 16:53:00,
2013-01-07 10:02:00,33.0,13.0,30.00,East,90,11.0,20.0,44,0.00,,,-99.99,,2013-01-07 17:02:00,
2013-01-07 10:12:00,33.0,13.0,30.00,East,90,11.0,20.0,44,0.00,,,-99.99,,2013-01-07 17:12:00,
2013-01-07 10:22:00,33.0,13.0,30.00,East,90,11.0,20.0,44,0.00,,,-99.99,,2013-01-07 17:22:00,
2013-01-07 10:32:00,35.0,15.0,30.01,SE,135,11.0,17.0,43,0.00,,,-99.99,,2013-01-07 17:32:00,
2013-01-07 10:42:00,35.0,15.0,30.01,SE,135,11.0,17.0,43,0.00,,,-99.99,,2013-01-07 17:42:00,
2013-01-07 10:53:00,36.0,16.0,30.01,SE,135,11.0,18.0,43,0.00,,,-99.99,,2013-01-07 17:53:00,
2013-01-07 11:02:00,36.0,16.0,30.01,SE,135,11.0,18.0,43,0.00,,,-99.99,,2013-01-07 18:02:00,
2013-01-07 11:12:00,36.0,16.0,30.01,SE,135,11.0,18.0,43,0.00,,,-99.99,,2013-01-07 18:12:00,
2013-01-07 11:22:00,38.0,18.0,30.00,SE,135,15.0,23.0,43,0.00,,,-99.99,,2013-01-07 18:22:00,
2013-01-07 11:33:00,39.0,18.0,30.00,SE,135,14.0,22.0,42,0.00,,,-99.99,,2013-01-07 18:33:00,
2013-01-07 11:43:00,39.0,17.0,29.99,SE,135,15.0,23.0,40,0.00,,,-99.99,,2013-01-07 18:43:00,
2013-01-07 11:52:00,39.0,17.0,29.99,SE,135,15.0,23.0,40,0.00,,,-99.99,,2013-01-07 18:52:00,
2013-01-07 12:02:00,38.0,18.0,29.98,West,270,11.0,21.0,43,0.00,,,-99.99,,2013-01-07 19:02:00,
2013-01-07 12:12:00,38.0,18.0,29.98,West,270,11.0,21.0,43,0.00,,,-99.99,,2013-01-07 19:12:00,
2013-01-07 12:22:00,38.0,18.0,29.98,West,270,11.0,21.0,43,0.00,,,-99.99,,2013-01-07 19:22:00,
2013-01-07 12:32:00,39.0,16.0,29.97,SE,135,7.0,13.0,39,0.00,,,-99.99,,2013-01-07 19:32:00,
2013-01-07 12:42:00,39.0,16.0,29.97,SE,135,7.0,13.0,39,0.00,,,-99.99,,2013-01-07 19:42:00,
2013-01-07 12:53:00,40.0,18.0,29.97,East,90,11.0,23.0,40,0.00,,,-99.99,,2013-01-07 19:53:00,
2013-01-07 13:02:00,40.0,18.0,29.97,East,90,11.0,23.0,40,0.00,,,-99.99,,2013-01-07 20:02:00,
2013-01-07 13:11:00,40.0,18.0,29.97,East,90,11.0,23.0,40,0.00,,,-99.99,,2013-01-07 20:11:00,
2013-01-07 13:22:00,41.0,16.0,29.97,SE,135,8.0,15.0,36,0.00,,,-99.99,,2013-01-07 20:22:00,
2013-01-07 13:32:00,41.0,16.0,29.97,SE,135,8.0,15.0,36,0.00,,,-99.99,,2013-01-07 20:32:00,
2013-01-07 13:42:00,41.0,16.0,29.97,SE,135,8.0,15.0,36,0.00,,,-99.99,,2013-01-07 20:42:00,
2013-01-07 13:52:00,41.0,16.0,29.96,SE,135,12.0,18.0,36,0.00,,,-99.99,,2013-01-07 20:52:00,
2013-01-07 14:02:00,41.0,16.0,29.96,SE,135,12.0,18.0,36,0.00,,,-99.99,,2013-01-07 21:02:00,
2013-01-07 14:12:00,41.0,16.0,29.96,SE,135,12.0,18.0,36,0.00,,,-99.99,,2013-01-07 21:12:00,
2013-01-07 14:22:00,42.0,14.0,29.96,North,360,8.0,14.0,32,0.00,,,-99.99,,2013-01-07 21:22:00,
2013-01-07 14:32:00,44.0,15.0,29.96,SE,135,8.0,14.0,31,0.00,,,-99.99,,2013-01-07 21:32:00,
2013-01-07 14:42:00,44.0,15.0,29.96,SE,135,8.0,14.0,31,0.00,,,-99.99,,2013-01-07 21:42:00,
2013-01-07 14:52:00,43.0,14.0,29.95,SE,135,9.0,14.0,30,0.00,,,-99.99,,2013-01-07 21:52:00,
2013-01-07 15:02:00,44.0,16.0,29.97,East,90,5.0,12.0,32,0.00,,,-99.99,,2013-01-07 22:02:00,
2013-01-07 15:11:00,44.0,16.0,29.97,East,90,5.0,12.0,32,0.00,,,-99.99,,2013-01-07 22:11:00,
2013-01-07 15:22:00,43.0,12.0,29.96,SE,135,8.0,15.0,28,0.00,,,-99.99,,2013-01-07 22:22:00,
2013-01-07 15:33:00,44.0,17.0,29.97,West,270,2.0,8.0,33,0.00,,,-99.99,,2013-01-07 22:33:00,
2013-01-07 15:42:00,44.0,17.0,29.97,West,270,2.0,8.0,33,0.00,,,-99.99,,2013-01-07 22:42:00,
2013-01-07 15:52:00,44.0,15.0,29.97,West,270,1.0,4.0,31,0.00,,,-99.99,,2013-01-07 22:52:00,
2013-01-07 16:02:00,44.0,15.0,29.96,NW,315,1.0,7.0,31,0.00,,,-99.99,,2013-01-07 23:02:00,
2013-01-07 16:11:00,44.0,15.0,29.96,NW,315,1.0,7.0,31,0.00,,,-99.99,,2013-01-07 23:11:00,
2013-01-07 16:22:00,42.0,14.0,29.98,South,180,2.0,6.0,32,0.00,,,-99.99,,2013-01-07 23:22:00,
2013-01-07 16:32:00,42.0,14.0,29.98,South,180,2.0,6.0,32,0.00,,,-99.99,,2013-01-07 23:32:00,
2013-01-07 16:42:00,42.0,14.0,29.98,South,180,2.0,6.0,32,0.00,,,-99.99,,2013-01-07 23:42:00,
2013-01-07 16:53:00,42.0,14.0,29.98,South,180,2.0,6.0,32,0.00,,,-99.99,,2013-01-07 23:53:00,
2013-01-07 17:02:00,38.0,11.0,30.00,NE,45,9.0,17.0,33,0.00,,,-99.99,,2013-01-08 00:02:00,
2013-01-07 17:12:00,38.0,11.0,30.00,NE,45,9.0,17.0,33,0.00,,,-99.99,,2013-01-08 00:12:00,
2013-01-07 17:22:00,37.0,11.0,30.00,West,270,10.0,18.0,34,0.00,,,-99.99,,2013-01-08 00:22:00,
2013-01-07 17:32:00,36.0,11.0,30.01,East,90,16.0,21.0,35,0.00,,,-99.99,,2013-01-08 00:32:00,
2013-01-07 17:42:00,36.0,11.0,30.01,East,90,16.0,21.0,35,0.00,,,-99.99,,2013-01-08 00:42:00,
2013-01-07 17:52:00,34.0,9.0,30.01,East,90,11.0,19.0,35,0.00,,,-99.99,,2013-01-08 00:52:00,
2013-01-07 18:02:00,33.0,8.0,30.01,NE,45,10.0,17.0,35,0.00,,,-99.99,,2013-01-08 01:02:00,
2013-01-07 18:11:00,33.0,8.0,30.01,NE,45,10.0,17.0,35,0.00,,,-99.99,,2013-01-08 01:11:00,
2013-01-07 18:22:00,28.0,8.0,30.01,North,360,8.0,13.0,43,0.00,,,-99.99,,2013-01-08 01:22:00,
2013-01-07 18:32:00,28.0,8.0,30.01,West,270,8.0,12.0,42,0.00,,,-99.99,,2013-01-08 01:32:00,
2013-01-07 18:42:00,28.0,8.0,30.01,West,270,8.0,12.0,42,0.00,,,-99.99,,2013-01-08 01:42:00,
2013-01-07 18:52:00,29.0,8.0,30.02,North,360,5.0,11.0,40,0.00,,,-99.99,,2013-01-08 01:52:00,
2013-01-07 19:02:00,28.0,8.0,30.02,North,360,5.0,10.0,42,0.00,,,-99.99,,2013-01-08 02:02:00,
2013-01-07 19:12:00,28.0,8.0,30.02,North,360,5.0,10.0,42,0.00,,,-99.99,,2013-01-08 02:12:00,
2013-01-07 19:22:00,25.0,8.0,30.03,WNW,292,5.0,11.0,47,0.00,,,-99.99,,2013-01-08 02:22:00,
2013-01-07 19:32:00,25.0,6.0,30.03,North,360,7.0,11.0,44,0.00,,,-99.99,,2013-01-08 02:32:00,
2013-01-07 19:42:00,25.0,6.0,30.03,North,360,7.0,11.0,44,0.00,,,-99.99,,2013-01-08 02:42:00,
2013-01-07 19:52:00,26.0,6.0,30.04,East,90,7.0,12.0,42,0.00,,,-99.99,,2013-01-08 02:52:00,
2013-01-07 20:02:00,28.0,6.0,30.04,NE,45,9.0,15.0,38,0.00,,,-99.99,,2013-01-08 03:02:00,
2013-01-07 20:11:00,28.0,6.0,30.04,NE,45,9.0,15.0,38,0.00,,,-99.99,,2013-01-08 03:11:00,
2013-01-07 20:22:00,28.0,6.0,30.04,NE,45,9.0,15.0,38,0.00,,,-99.99,,2013-01-08 03:22:00,
2013-01-07 20:32:00,26.0,6.0,30.04,NW,315,4.0,8.0,41,0.00,,,-99.99,,2013-01-08 03:32:00,
2013-01-07 20:42:00,26.0,6.0,30.04,NW,315,4.0,8.0,41,0.00,,,-99.99,,2013-01-08 03:42:00,
2013-01-07 20:53:00,26.0,6.0,30.04,NW,315,4.0,8.0,41,0.00,,,-99.99,,2013-01-08 03:53:00,
2013-01-07 21:02:00,26.0,6.0,30.04,NW,315,4.0,8.0,41,0.00,,,-99.99,,2013-01-08 04:02:00,
2013-01-07 21:11:00,26.0,6.0,30.04,NW,315,4.0,8.0,41,0.00,,,-99.99,,2013-01-08 04:11:00,
2013-01-07 21:22:00,23.0,7.0,30.03,West,270,12.0,19.0,49,0.00,,,-99.99,,2013-01-08 04:22:00,
2013-01-07 21:32:00,24.0,5.0,30.03,South,180,2.0,8.0,44,0.00,,,-99.99,,2013-01-08 04:32:00,
2013-01-07 21:42:00,24.0,5.0,30.03,South,180,2.0,8.0,44,0.00,,,-99.99,,2013-01-08 04:42:00,
2013-01-07 21:52:00,22.0,5.0,30.03,West,270,6.0,9.0,47,0.00,,,-99.99,,2013-01-08 04:52:00,
2013-01-07 22:03:00,22.0,5.0,30.03,West,270,6.0,9.0,47,0.00,,,-99.99,,2013-01-08 05:03:00,
2013-01-07 22:12:00,22.0,5.0,30.03,West,270,6.0,9.0,47,0.00,,,-99.99,,2013-01-08 05:12:00,
2013-01-07 22:22:00,22.0,5.0,30.03,West,270,6.0,9.0,47,0.00,,,-99.99,,2013-01-08 05:22:00,
2013-01-07 22:32:00,22.0,3.0,30.03,South,180,1.0,4.0,43,0.00,,,-99.99,,2013-01-08 05:32:00,
2013-01-07 22:43:00,22.0,3.0,30.03,South,180,1.0,4.0,43,0.00,,,-99.99,,2013-01-08 05:43:00,
2013-01-07 22:53:00,21.0,5.0,30.04,North,360,1.0,5.0,49,0.00,,,-99.99,,2013-01-08 05:53:00,
2013-01-07 23:02:00,21.0,5.0,30.04,North,360,1.0,5.0,49,0.00,,,-99.99,,2013-01-08 06:02:00,
2013-01-07 23:11:00,21.0,5.0,30.04,North,360,1.0,5.0,49,0.00,,,-99.99,,2013-01-08 06:11:00,
2013-01-07 23:22:00,22.0,2.0,30.03,South,180,3.0,9.0,42,0.00,,,-99.99,,2013-01-08 06:22:00,
2013-01-07 23:32:00,22.0,2.0,30.03,South,180,3.0,9.0,42,0.00,,,-99.99,,2013-01-08 06:32:00,
2013-01-07 23:42:00,22.0,2.0,30.03,South,180,3.0,9.0,42,0.00,,,-99.99,,2013-01-08 06:42:00,
2013-01-07 23:52:00,23.0,4.0,30.04,NE,45,2.0,5.0,43,0.00,,,-99.99,,2013-01-08 06:52:00,